DW4379 Weather Reports


Display with metric or nautical units.
time (UTC)temp
F
wind
direction
speed
MPH
gust
MPH
rain 1hr
in
rain 24hr
in
rain mn
in
humidity
%
barometer
mb
20260509205217 74 269 1.0 7.0 0.00 0.05 0.00 65 1006.4
20260509204504 74 274 1.0 4.0 0.00 0.05 0.00 63 1006.4
20260509204003 74 269 1.0 5.0 0.00 0.05 0.00 65 1006.4
20260509203718 74 257 2.0 8.0 0.00 0.05 0.00 63 1006.3
20260509203003 74 247 1.0 8.0 0.00 0.05 0.00 63 1006.3
20260509202503 74 227 1.0 6.0 0.00 0.05 0.00 65 1006.3
20260509202003 74 234 1.0 6.0 0.00 0.05 0.00 64 1006.3
20260509201503 74 255 1.0 4.0 0.00 0.05 0.00 65 1006.4
20260509201218 74 245 1.0 4.0 0.00 0.05 0.00 63 1006.4
20260509200503 73 223 1.0 7.0 0.00 0.05 0.00 66 1006.6
20260509200218 74 221 1.0 7.0 0.00 0.05 0.00 64 1006.6
20260509195503 74 232 1.0 4.0 0.00 0.05 0.00 64 1006.7
20260509195003 74 230 0.0 3.0 0.00 0.05 0.00 66 1006.8
20260509194503 74 243 1.0 5.0 0.00 0.05 0.00 65 1006.8
20260509194003 73 245 1.0 5.0 0.00 0.05 0.00 65 1006.8
20260509193503 74 241 1.0 5.0 0.00 0.05 0.00 66 1006.9
20260509193218 74 231 0.0 5.0 0.00 0.05 0.00 66 1006.8
20260509192503 73 223 1.0 4.0 0.00 0.05 0.00 66 1006.8
20260509192003 73 216 1.0 8.0 0.00 0.05 0.00 65 1006.8
20260509191503 73 232 1.0 8.0 0.00 0.05 0.00 66 1006.9
20260509191003 73 237 1.0 6.0 0.00 0.05 0.00 65 1006.9
20260509190503 73 225 1.0 4.0 0.00 0.05 0.00 66 1006.9
20260509190218 73 233 1.0 4.0 0.00 0.05 0.00 66 1006.9
20260509185503 73 222 1.0 4.0 0.00 0.05 0.00 66 1006.9
20260509185003 72 229 1.0 5.0 0.00 0.05 0.00 69 1007.0
20260509184503 72 251 1.0 5.0 0.00 0.05 0.00 68 1007.0
20260509184218 72 251 1.0 5.0 0.00 0.05 0.00 69 1007.1
20260509183504 72 215 0.0 3.0 0.00 0.05 0.00 71 1007.0
20260509183003 72 198 1.0 3.0 0.00 0.05 0.00 71 1006.9
20260509182503 71 204 1.0 5.0 0.00 0.05 0.00 71 1007.0
20260509182003 71 222 1.0 5.0 0.00 0.05 0.00 72 1007.1
20260509181503 70 234 1.0 4.0 0.00 0.05 0.00 73 1007.0
20260509181003 70 236 1.0 4.0 0.00 0.05 0.00 73 1007.0
20260509180503 70 230 1.0 6.0 0.00 0.05 0.00 73 1007.1
20260509180217 69 225 2.0 7.0 0.00 0.05 0.00 72 1007.1
20260509175503 70 204 1.0 7.0 0.00 0.05 0.00 75 1007.1
20260509175003 69 217 1.0 9.0 0.00 0.05 0.00 75 1007.1
20260509174503 69 216 1.0 9.0 0.00 0.05 0.00 75 1007.2
20260509174004 68 234 1.0 7.0 0.00 0.05 0.00 77 1007.3
20260509173503 68 225 1.0 7.0 0.00 0.05 0.00 75 1007.5
20260509173217 68 219 1.0 7.0 0.00 0.05 0.00 78 1007.5
20260509172503 67 188 1.0 4.0 0.00 0.05 0.00 78 1007.7
20260509172003 67 234 1.0 8.0 0.00 0.05 0.00 78 1007.8
20260509171503 67 229 2.0 8.0 0.00 0.05 0.00 78 1007.8
20260509171003 67 224 1.0 6.0 0.00 0.05 0.00 77 1007.8
20260509170504 67 238 1.0 6.0 0.00 0.05 0.00 78 1007.8
20260509170004 66 226 1.0 6.0 0.00 0.05 0.00 77 1007.8
20260509165503 66 163 1.0 5.0 0.00 0.05 0.00 81 1007.8
20260509165217 66 161 1.0 5.0 0.00 0.05 0.00 80 1007.8
20260509164504 65 223 1.0 4.0 0.00 0.05 0.00 82 1007.9
20260509164003 64 222 1.0 6.0 0.00 0.05 0.00 83 1007.9
20260509163503 64 214 1.0 6.0 0.00 0.05 0.00 84 1008.0
20260509163003 63 228 1.0 4.0 0.00 0.05 0.00 84 1008.0
20260509162718 63 227 1.0 8.0 0.00 0.05 0.00 85 1008.0
20260509162003 62 233 1.0 8.0 0.00 0.05 0.00 85 1008.0
20260509161503 62 238 1.0 3.0 0.00 0.05 0.00 87 1008.0
20260509161003 62 230 1.0 3.0 0.00 0.05 0.00 88 1008.1
20260509160503 61 203 0.0 3.0 0.00 0.05 0.00 90 1008.0
20260509160003 61 177 0.0 3.0 0.00 0.05 0.00 91 1008.1
20260509155503 60 216 0.0 3.0 0.00 0.05 0.00 92 1008.0
20260509155217 60 217 0.0 2.0 0.00 0.05 0.00 92 1007.9
20260509154718 60 236 0.0 5.0 0.00 0.05 0.00 93 1007.9
20260509154004 59 240 0.0 5.0 0.00 0.05 0.00 96 1008.0
20260509153503 59 242 0.0 4.0 0.00 0.05 0.00 96 1007.9
20260509153003 59 239 0.0 4.0 0.00 0.05 0.00 96 1007.8
20260509152503 59 223 0.0 3.0 0.00 0.05 0.00 97 1007.7
20260509152219 59 227 0.0 3.0 0.00 0.05 0.00 97 1007.6
20260509151503 58 222 0.0 3.0 0.00 0.05 0.00 98 1007.6
20260509151219 58 224 0.0 3.0 0.00 0.05 0.00 98 1007.5
20260509150504 58 243 0.0 2.0 0.00 0.05 0.00 97 1007.6
20260509150003 58 228 0.0 2.0 0.00 0.05 0.00 97 1007.6
20260509145503 58 234 0.0 3.0 0.00 0.05 0.00 98 1007.6
20260509145003 57 241 0.0 3.0 0.00 0.05 0.00 98 1007.7
20260509144503 57 238 1.0 4.0 0.00 0.05 0.00 97 1007.7
20260509144003 57 234 0.0 4.0 0.00 0.05 0.00 97 1007.8
20260509143503 57 167 0.0 2.0 0.00 0.05 0.00 98 1007.8
20260509143218 57 193 0.0 2.0 0.00 0.05 0.00 98 1007.8
20260509142503 56 235 0.0 2.0 0.00 0.05 0.00 98 1007.7
20260509142003 56 193 0.0 1.0 0.00 0.05 0.00 98 1007.7
20260509141503 56 193 0.0 1.0 0.00 0.05 0.00 98 1007.8
20260509141003 56 142 0.0 2.0 0.00 0.05 0.00 97 1007.8
20260509140503 56 174 0.0 2.0 0.00 0.05 0.00 98 1007.9
20260509140004 56 236 0.0 1.0 0.00 0.05 0.00 98 1007.9
20260509135503 56 241 0.0 2.0 0.00 0.05 0.00 98 1007.9
20260509135218 56 236 0.0 2.0 0.00 0.05 0.00 98 1007.9
20260509134503 56 214 0.0 1.0 0.05 0.05 0.00 98 1007.7
20260509134218 55 232 0.0 1.0 0.05 0.05 0.00 98 1007.7
20260509133503 55 229 0.0 2.0 0.05 0.05 0.00 98 1007.6
20260509133004 55 236 0.0 5.0 0.05 0.05 0.00 98 1007.6
20260509132503 55 239 0.0 5.0 0.05 0.05 0.00 97 1007.6
20260509132003 54 236 0.0 2.0 0.05 0.05 0.00 97 1007.6
20260509131503 54 230 0.0 1.0 0.05 0.05 0.00 97 1007.6
20260509131003 54 192 0.0 3.0 0.05 0.05 0.00 97 1007.7
20260509130503 54 169 0.0 3.0 0.05 0.05 0.05 97 1007.7
20260509130003 55 240 0.0 3.0 0.05 0.05 0.05 97 1007.8
20260509125717 55 243 0.0 3.0 0.05 0.05 0.05 98 1007.8
20260509125003 55 112 0.0 1.0 0.00 0.00 0.00 98 1007.7
20260509124503 55 191 0.0 2.0 0.00 0.00 0.00 98 1007.6
20260509124217 55 214 0.0 2.0 0.00 0.00 0.00 98 1007.6
20260509123719 55 219 0.0 4.0 0.00 0.00 0.00 98 1007.7
20260509123003 54 213 0.0 4.0 0.00 0.00 0.00 98 1007.7
20260509122719 54 233 0.0 1.0 0.00 0.00 0.00 98 1007.6
20260509122003 54 232 0.0 3.0 0.00 0.00 0.00 98 1007.6
20260509121503 54 234 0.0 3.0 0.00 0.00 0.00 98 1007.6
20260509121003 54 233 0.0 2.0 0.00 0.00 0.00 98 1007.5
20260509120503 54 248 0.0 1.0 0.00 0.00 0.00 98 1007.4
20260509120004 54 0 0.0 0.0 0.00 0.00 0.00 98 1007.2
20260509115503 54 231 0.0 1.0 0.00 0.00 0.00 98 1007.1
20260509115003 54 234 0.0 1.0 0.00 0.00 0.00 98 1007.0
20260509114503 54 237 0.0 1.0 0.00 0.00 0.00 98 1006.9
20260509114003 54 230 0.0 1.0 0.00 0.00 0.00 98 1007.0
20260509113503 54 230 0.0 1.0 0.00 0.00 0.00 98 1006.9
20260509113004 54 0 0.0 0.0 0.00 0.00 0.00 98 1006.8
20260509112503 53 268 0.0 1.0 0.00 0.00 0.00 98 1006.8
20260509112217 53 268 0.0 1.0 0.00 0.00 0.00 98 1006.8
20260509111503 53 0 0.0 0.0 0.00 0.00 0.00 98 1006.7
20260509111003 53 239 0.0 1.0 0.00 0.00 0.00 98 1006.7
20260509110503 53 239 0.0 1.0 0.00 0.00 0.00 98 1006.7
20260509110003 52 0 0.0 0.0 0.00 0.00 0.00 98 1006.7
20260509105503 52 0 0.0 0.0 0.00 0.00 0.00 97 1006.7
20260509105003 52 0 0.0 0.0 0.00 0.00 0.00 97 1006.7
20260509104718 52 0 0.0 0.0 0.00 0.00 0.00 97 1006.7
20260509104003 52 0 0.0 0.0 0.00 0.00 0.00 97 1006.7
20260509103503 52 0 0.0 0.0 0.00 0.00 0.00 97 1006.6
20260509103003 52 0 0.0 0.0 0.00 0.00 0.00 97 1006.5
20260509102503 52 0 0.0 0.0 0.00 0.00 0.00 97 1006.4
20260509102003 52 0 0.0 0.0 0.00 0.00 0.00 97 1006.4
20260509101503 52 0 0.0 0.0 0.00 0.00 0.00 97 1006.3
20260509101003 52 0 0.0 0.0 0.00 0.00 0.00 97 1006.3
20260509100718 52 0 0.0 0.0 0.00 0.00 0.00 97 1006.3
20260509100219 52 0 0.0 0.0 0.00 0.00 0.00 97 1006.2
20260509095503 52 0 0.0 0.0 0.00 0.00 0.00 97 1006.2
20260509095003 52 0 0.0 0.0 0.00 0.00 0.00 97 1006.2
20260509094503 52 0 0.0 0.0 0.00 0.00 0.00 97 1006.2
20260509094003 53 0 0.0 0.0 0.00 0.00 0.00 97 1006.2
20260509093717 53 0 0.0 0.0 0.00 0.00 0.00 97 1006.1
20260509093218 53 0 0.0 0.0 0.00 0.00 0.00 97 1006.1
20260509092503 53 0 0.0 0.0 0.00 0.00 0.00 97 1006.0
20260509092003 53 0 0.0 0.0 0.00 0.00 0.00 97 1006.1
20260509091503 53 0 0.0 0.0 0.00 0.00 0.00 97 1006.1
20260509091216 53 0 0.0 0.0 0.00 0.00 0.00 97 1006.0
20260509090503 54 0 0.0 0.0 0.00 0.00 0.00 97 1005.9
20260509090003 54 24 0.0 1.0 0.00 0.00 0.00 97 1006.0
20260509085503 54 24 0.0 1.0 0.00 0.00 0.00 97 1006.1
20260509085003 54 24 0.0 1.0 0.00 0.00 0.00 97 1005.9
20260509084717 54 24 0.0 1.0 0.00 0.00 0.00 97 1005.9
20260509084003 54 0 0.0 0.0 0.00 0.00 0.00 97 1006.0
20260509083503 54 334 0.0 1.0 0.00 0.00 0.00 97 1006.1
20260509083003 54 334 0.0 1.0 0.00 0.00 0.00 97 1006.3
20260509082503 55 0 0.0 0.0 0.00 0.00 0.00 97 1006.3
20260509082003 55 0 0.0 0.0 0.00 0.00 0.00 97 1006.4
20260509081504 55 0 0.0 0.0 0.00 0.00 0.00 97 1006.3
20260509081218 55 0 0.0 0.0 0.00 0.00 0.00 97 1006.3
20260509080503 55 0 0.0 0.0 0.00 0.00 0.00 97 1006.5
20260509080003 55 0 0.0 0.0 0.00 0.00 0.00 97 1006.6
20260509075503 55 0 0.0 0.0 0.00 0.00 0.00 97 1006.7
20260509075218 55 0 0.0 0.0 0.00 0.00 0.00 97 1006.6
20260509074504 55 0 0.0 0.0 0.00 0.00 0.00 97 1006.7
20260509074003 55 0 0.0 0.0 0.00 0.00 0.00 97 1006.7
20260509073503 55 334 0.0 1.0 0.00 0.00 0.00 97 1006.6
20260509073003 55 20 0.0 2.0 0.00 0.00 0.00 97 1006.7
20260509072504 55 118 1.0 3.0 0.00 0.00 0.00 97 1006.5
20260509072009 55 119 1.0 3.0 0.00 0.00 0.00 97 1006.2
20260509071718 55 125 1.0 3.0 0.00 0.00 0.00 97 1006.4
20260509071003 56 168 0.0 2.0 0.00 0.00 0.00 97 1006.7
20260509070503 56 158 0.0 1.0 0.00 0.00 0.00 97 1006.9
20260509070003 56 158 0.0 1.0 0.00 0.00 0.00 97 1007.1
20260509065503 56 192 0.0 1.0 0.00 0.00 0.00 97 1007.3
20260509065003 56 0 0.0 0.0 0.00 0.00 0.00 97 1007.5
20260509064718 56 213 0.0 1.0 0.00 0.00 0.00 97 1007.6
20260509064003 56 213 0.0 1.0 0.00 0.00 0.00 97 1007.7
20260509063503 56 0 0.0 0.0 0.00 0.00 0.00 97 1007.6
20260509063003 56 0 0.0 0.0 0.00 0.00 0.00 97 1007.5
20260509062503 56 0 0.0 0.0 0.00 0.00 0.00 97 1007.4
20260509062003 56 0 0.0 0.0 0.00 0.00 0.00 97 1007.5
20260509061504 56 0 0.0 0.0 0.00 0.00 0.00 97 1007.8
20260509061003 56 0 0.0 0.0 0.00 0.00 0.00 97 1007.8
20260509060503 56 210 0.0 1.0 0.00 0.00 0.00 97 1007.9
20260509060004 56 228 0.0 1.0 0.00 0.00 0.00 97 1007.8
20260509055503 56 237 0.0 1.0 0.00 0.00 0.00 97 1007.8
20260509055003 56 233 0.0 2.0 0.00 0.00 0.00 97 1007.9
20260509054503 56 228 0.0 3.0 0.00 0.00 0.00 97 1007.8
20260509054003 56 230 0.0 3.0 0.00 0.00 0.00 97 1008.0
20260509053718 56 239 0.0 2.0 0.00 0.00 0.00 97 1008.0
20260509053003 56 221 0.0 3.0 0.00 0.00 0.00 97 1008.0
20260509052503 56 219 0.0 3.0 0.00 0.00 0.00 97 1008.0
20260509052003 56 235 0.0 1.0 0.00 0.00 0.00 97 1008.0
20260509051503 56 235 0.0 2.0 0.00 0.00 0.00 97 1008.1
20260509051003 56 241 0.0 3.0 0.00 0.00 0.00 97 1008.1
20260509050503 56 240 0.0 3.0 0.00 0.00 0.00 97 1008.1
20260509050003 56 233 0.0 5.0 0.00 0.00 0.00 97 1008.1
20260509045503 57 237 0.0 5.0 0.00 0.00 0.00 97 1008.0
20260509045003 57 185 0.0 2.0 0.00 0.00 0.00 97 1008.1
20260509044718 57 134 0.0 2.0 0.00 0.00 0.00 97 1008.1
20260509044008 57 110 0.0 2.0 0.00 0.00 0.00 97 1008.1
20260509043503 57 107 1.0 3.0 0.00 0.00 0.00 97 1008.1
20260509043004 57 117 1.0 3.0 0.00 0.00 0.00 97 1008.1
20260509042503 57 118 1.0 3.0 0.00 0.00 0.00 97 1008.1
20260509042004 57 117 0.0 3.0 0.00 0.00 0.00 97 1008.2
20260509041503 57 145 0.0 2.0 0.00 0.00 0.00 97 1008.1
20260509041003 57 128 1.0 4.0 0.00 0.00 0.00 97 1008.2
20260509040503 57 114 1.0 5.0 0.00 0.00 0.00 97 1008.2
20260509040220 57 114 1.0 5.0 0.00 0.00 0.00 97 1008.1
20260509035503 57 109 1.0 4.0 0.00 0.00 0.00 97 1008.3
20260509035003 57 116 0.0 3.0 0.00 0.00 0.00 97 1008.2
20260509034503 57 114 0.0 3.0 0.00 0.00 0.00 97 1008.3
20260509034004 57 112 0.0 3.0 0.00 0.00 0.00 96 1008.3
20260509033503 57 117 0.0 2.0 0.00 0.00 0.00 96 1008.4
20260509033003 57 131 0.0 2.0 0.00 0.00 0.00 96 1008.3
20260509032503 57 155 0.0 1.0 0.00 0.00 0.00 96 1008.2
20260509032003 57 100 0.0 1.0 0.00 0.00 0.00 96 1008.2
20260509031503 57 108 0.0 1.0 0.00 0.00 0.00 96 1008.3
20260509031003 57 112 0.0 1.0 0.00 0.00 0.00 96 1008.4
20260509030503 57 137 0.0 1.0 0.00 0.00 0.00 96 1008.5
20260509030218 57 137 0.0 1.0 0.00 0.00 0.00 96 1008.5
20260509025503 57 137 0.0 1.0 0.00 0.00 0.00 96 1008.4
20260509025003 57 104 0.0 1.0 0.00 0.00 0.00 96 1008.5
20260509024503 57 102 0.0 1.0 0.00 0.00 0.00 96 1008.4
20260509024003 57 88 0.0 1.0 0.00 0.00 0.00 96 1008.4
20260509023717 57 88 0.0 1.0 0.00 0.00 0.00 96 1008.4
20260509023003 57 0 0.0 0.0 0.00 0.00 0.00 96 1008.3
20260509022503 57 0 0.0 0.0 0.00 0.00 0.00 96 1008.4
20260509022003 57 0 0.0 0.0 0.00 0.00 0.00 96 1008.3
20260509021719 57 0 0.0 0.0 0.00 0.00 0.00 96 1008.3
20260509021003 57 0 0.0 0.0 0.00 0.00 0.00 96 1008.4
20260509020503 57 0 0.0 0.0 0.00 0.00 0.00 96 1008.2
20260509020004 57 0 0.0 0.0 0.00 0.00 0.00 96 1008.1
20260509015503 57 0 0.0 0.0 0.00 0.00 0.00 96 1008.1
20260509015003 57 0 0.0 0.0 0.00 0.00 0.00 96 1007.9
20260509014503 57 0 0.0 0.0 0.00 0.00 0.00 96 1007.9
20260509014004 57 0 0.0 0.0 0.00 0.00 0.00 96 1007.9
20260509013503 57 0 0.0 0.0 0.00 0.00 0.00 95 1008.0
20260509013217 57 0 0.0 0.0 0.00 0.00 0.00 95 1008.1
20260509012503 57 0 0.0 0.0 0.00 0.00 0.00 95 1008.1
20260509012217 57 0 0.0 0.0 0.00 0.00 0.00 95 1008.0
20260509011503 57 0 0.0 0.0 0.00 0.00 0.00 95 1008.0
20260509011003 57 0 0.0 0.0 0.00 0.00 0.00 95 1008.0
20260509010503 57 0 0.0 0.0 0.00 0.00 0.00 95 1008.0
20260509010217 57 0 0.0 0.0 0.00 0.00 0.00 95 1008.0
20260509005504 57 0 0.0 0.0 0.00 0.00 0.00 95 1007.8
20260509005003 57 0 0.0 0.0 0.00 0.00 0.00 95 1007.8
20260509004503 57 226 0.0 1.0 0.00 0.00 0.00 95 1007.8
20260509004003 57 226 0.0 1.0 0.00 0.00 0.00 94 1007.8
20260509003503 58 0 0.0 0.0 0.00 0.00 0.00 94 1007.8
20260509003003 58 0 0.0 0.0 0.00 0.00 0.00 94 1007.9
20260509002504 58 228 0.0 1.0 0.00 0.00 0.00 94 1008.0
20260509002004 58 228 0.0 1.0 0.00 0.00 0.00 94 1008.1
20260509001503 58 0 0.0 0.0 0.00 0.00 0.00 94 1007.9
20260509001003 58 0 0.0 0.0 0.00 0.00 0.00 94 1007.8
20260509000503 58 170 0.0 1.0 0.00 0.00 0.00 94 1007.8
20260509000004 58 168 0.0 2.0 0.00 0.00 0.00 93 1007.9
20260508235503 58 163 0.0 2.0 0.00 0.00 0.00 94 1007.9
20260508235003 58 75 0.0 2.0 0.00 0.00 0.00 94 1008.1
20260508234503 58 75 0.0 2.0 0.00 0.00 0.00 93 1007.8
20260508234003 58 0 0.0 0.0 0.00 0.00 0.00 93 1008.3
20260508233503 58 349 0.0 1.0 0.00 0.00 0.00 93 1008.5
20260508233003 58 349 0.0 1.0 0.00 0.00 0.00 93 1008.3
20260508232504 58 355 0.0 2.0 0.00 0.00 0.00 93 1008.3
20260508232003 59 355 0.0 2.0 0.00 0.00 0.00 93 1008.2
20260508231503 59 0 0.0 0.0 0.00 0.00 0.00 92 1008.3
20260508231003 59 0 0.0 0.0 0.00 0.00 0.00 92 1008.4
20260508230503 59 0 0.0 0.0 0.00 0.00 0.00 92 1008.4
20260508230003 59 333 0.0 2.0 0.00 0.00 0.00 91 1008.5
20260508225503 60 355 0.0 2.0 0.00 0.00 0.00 91 1008.5
20260508225003 60 3 0.0 2.0 0.00 0.00 0.00 90 1008.6
20260508224503 60 0 0.0 0.0 0.00 0.00 0.00 89 1008.7
20260508224003 60 338 0.0 2.0 0.00 0.00 0.00 88 1008.6
20260508223504 60 341 0.0 2.0 0.00 0.00 0.00 88 1008.4
20260508223003 60 3 0.0 1.0 0.00 0.00 0.00 88 1008.3
20260508222503 60 22 0.0 1.0 0.00 0.00 0.00 87 1008.5
20260508222003 61 0 0.0 0.0 0.00 0.00 0.00 89 1008.4
20260508221503 61 0 0.0 0.0 0.00 0.00 0.00 88 1008.4
20260508221003 61 34 0.0 1.0 0.00 0.00 0.00 88 1008.3
20260508220503 61 35 0.0 1.0 0.00 0.00 0.00 88 1008.3
20260508220003 61 27 0.0 1.0 0.00 0.00 0.00 86 1008.2
20260508215717 61 360 0.0 1.0 0.00 0.00 0.00 86 1008.2
20260508215003 62 335 0.0 1.0 0.00 0.00 0.00 86 1008.1
20260508214503 62 0 0.0 0.0 0.00 0.00 0.00 84 1008.1
20260508214003 62 331 0.0 1.0 0.00 0.00 0.00 83 1008.1
20260508213503 62 327 0.0 1.0 0.00 0.00 0.00 80 1007.9
20260508213003 62 319 0.0 1.0 0.00 0.00 0.00 79 1008.4
20260508212503 63 314 0.0 2.0 0.00 0.00 0.00 79 1008.1
20260508212003 63 311 0.0 2.0 0.00 0.00 0.00 77 1008.3
20260508211504 64 304 0.0 1.0 0.00 0.00 0.00 76 1008.4
20260508211003 64 0 0.0 0.0 0.00 0.00 0.00 75 1008.4
20260508210503 65 0 0.0 0.0 0.00 0.00 0.00 74 1008.5
20260508210003 65 0 0.0 0.0 0.00 0.00 0.00 73 1008.4
20260508205503 65 0 0.0 0.0 0.00 0.00 0.00 73 1008.2